Location: Black Forest
(43.4794°N, 75.0081°W)
Time: 10:01:49
(UTC-05:00)

ISS - Visible Passes

Search period start: 26 November 2014 00:00
Search period end: 06 December 2014 00:00
Orbit: 407 x 417 km, 51.6° (Epoch: 26 November)

Date Brightness Start Highest point End Pass type
(mag) Time Alt. Az. Time Alt. Az. Time Alt. Az.
26 Nov -0.5 04:29:40 19° ENE 04:29:40 19° ENE 04:30:50 10° E visible
26 Nov -2.6 06:02:30 19° W 06:04:28 40° SW 06:07:35 10° SSE visible
27 Nov -3.2 05:14:59 68° S 05:14:59 68° S 05:18:04 10° SE visible
28 Nov -0.3 04:27:33 16° ESE 04:27:33 16° ESE 04:28:19 10° ESE visible
28 Nov -1.4 06:00:23 15° WSW 06:01:21 16° SW 06:03:30 10° S visible
29 Nov -1.4 05:13:01 21° S 05:13:01 21° S 05:14:38 10° SSE visible
